TimeCDT,TemperatureF,Dew PointF,Humidity,Sea Level PressureIn,VisibilityMPH,Wind Direction,Wind SpeedMPH,Gust SpeedMPH,PrecipitationIn,Events,Conditions,WindDirDegrees,DateUTC
12:15 AM,74.3,60.1,61,30.02,10.0,Calm,Calm,-,N/A,,Clear,0,2013-09-10 05:15:00
12:35 AM,74.1,60.6,63,30.02,10.0,Calm,Calm,-,N/A,,Clear,0,2013-09-10 05:35:00
12:55 AM,73.2,60.8,65,30.02,10.0,Calm,Calm,-,N/A,,Clear,0,2013-09-10 05:55:00
1:15 AM,72.9,61.9,68,30.03,10.0,Calm,Calm,-,N/A,,Clear,0,2013-09-10 06:15:00
1:35 AM,71.8,61.7,70,30.03,10.0,Calm,Calm,-,N/A,,Clear,0,2013-09-10 06:35:00
1:55 AM,71.1,61.9,73,30.04,10.0,Calm,Calm,-,N/A,,Clear,0,2013-09-10 06:55:00
2:15 AM,71.6,62.1,72,30.04,10.0,Calm,Calm,-,N/A,,Clear,0,2013-09-10 07:15:00
2:35 AM,70.7,62.2,75,30.04,10.0,Calm,Calm,-,N/A,,Clear,0,2013-09-10 07:35:00
2:55 AM,70.2,62.4,76,30.04,10.0,Calm,Calm,-,N/A,,Clear,0,2013-09-10 07:55:00
3:15 AM,70.2,62.2,76,30.05,10.0,Calm,Calm,-,N/A,,Clear,0,2013-09-10 08:15:00
3:35 AM,69.4,62.6,79,30.05,10.0,Calm,Calm,-,N/A,,Clear,0,2013-09-10 08:35:00
3:55 AM,69.1,62.2,79,30.05,10.0,Calm,Calm,-,N/A,,Clear,0,2013-09-10 08:55:00
4:15 AM,68.7,62.4,80,30.06,10.0,Calm,Calm,-,N/A,,Clear,0,2013-09-10 09:15:00
4:35 AM,67.8,62.6,83,30.06,10.0,Calm,Calm,-,N/A,,Clear,0,2013-09-10 09:35:00
4:55 AM,68.4,62.6,82,30.07,10.0,Calm,Calm,-,N/A,,Clear,0,2013-09-10 09:55:00
5:15 AM,68.4,62.6,82,30.07,10.0,Calm,Calm,-,N/A,,Clear,0,2013-09-10 10:15:00
5:35 AM,68.4,63.0,83,30.07,10.0,Calm,Calm,-,N/A,,Clear,0,2013-09-10 10:35:00
5:55 AM,68.4,63.1,83,30.07,10.0,Calm,Calm,-,N/A,,Clear,0,2013-09-10 10:55:00
6:15 AM,68.9,63.3,82,30.08,10.0,Calm,Calm,-,N/A,,Clear,0,2013-09-10 11:15:00
6:35 AM,68.9,63.7,83,30.08,10.0,North,-9999.0,-,N/A,,Clear,0,2013-09-10 11:35:00
6:55 AM,68.4,63.5,84,30.09,10.0,Calm,Calm,-,N/A,,Clear,0,2013-09-10 11:55:00
7:15 AM,68.9,63.9,84,30.09,10.0,Calm,Calm,-,N/A,,Clear,0,2013-09-10 12:15:00
7:35 AM,69.3,64.4,84,30.10,10.0,Calm,Calm,-,N/A,,Clear,0,2013-09-10 12:35:00
7:55 AM,71.2,65.1,81,30.11,10.0,Calm,Calm,-,N/A,,Clear,0,2013-09-10 12:55:00
8:15 AM,72.5,65.3,78,30.12,10.0,Calm,Calm,-,N/A,,Clear,0,2013-09-10 13:15:00
8:35 AM,74.3,66.2,76,30.12,10.0,Calm,Calm,-,N/A,,Clear,0,2013-09-10 13:35:00
8:55 AM,75.9,67.1,74,30.12,10.0,Calm,Calm,-,N/A,,Clear,0,2013-09-10 13:55:00
9:15 AM,79.5,68.4,69,30.13,10.0,Calm,Calm,-,N/A,,Clear,0,2013-09-10 14:15:00
9:35 AM,81.3,68.7,65,30.14,10.0,ESE,3.5,-,N/A,,Clear,110,2013-09-10 14:35:00
9:55 AM,84.0,68.0,58,30.13,10.0,South,3.5,-,N/A,,Clear,170,2013-09-10 14:55:00
10:15 AM,84.9,67.1,55,30.13,10.0,SSE,6.9,-,N/A,,Clear,150,2013-09-10 15:15:00
10:35 AM,85.5,66.9,54,30.13,10.0,SE,10.4,-,N/A,,Scattered Clouds,140,2013-09-10 15:35:00
10:55 AM,86.9,66.6,51,30.13,10.0,East,8.1,-,N/A,,Scattered Clouds,100,2013-09-10 15:55:00
11:15 AM,85.3,66.4,53,30.13,10.0,SSE,5.8,-,N/A,,Scattered Clouds,160,2013-09-10 16:15:00
11:35 AM,86.4,66.6,51,30.13,10.0,SE,3.5,-,N/A,,Scattered Clouds,140,2013-09-10 16:35:00
11:55 AM,88.9,63.1,42,30.12,10.0,East,8.1,-,N/A,,Scattered Clouds,100,2013-09-10 16:55:00
12:15 PM,90.9,63.1,40,30.12,10.0,ESE,10.4,-,N/A,,Mostly Cloudy,110,2013-09-10 17:15:00
12:35 PM,89.6,63.1,41,30.11,10.0,ESE,5.8,-,N/A,,Mostly Cloudy,120,2013-09-10 17:35:00
12:55 PM,92.1,58.5,32,30.11,10.0,SSE,11.5,17.3,N/A,,Scattered Clouds,150,2013-09-10 17:55:00
1:15 PM,91.9,59.0,33,30.10,10.0,ENE,4.6,-,N/A,,Clear,60,2013-09-10 18:15:00
1:35 PM,92.7,58.6,32,30.09,10.0,SE,9.2,17.3,N/A,,Scattered Clouds,130,2013-09-10 18:35:00
1:55 PM,94.6,58.6,30,30.08,10.0,South,6.9,-,N/A,,Scattered Clouds,180,2013-09-10 18:55:00
2:15 PM,93.6,57.4,30,30.08,10.0,SE,9.2,16.1,N/A,,Scattered Clouds,140,2013-09-10 19:15:00
2:35 PM,93.0,57.7,30,30.07,10.0,SSE,10.4,-,N/A,,Clear,150,2013-09-10 19:35:00
2:55 PM,92.3,57.4,31,30.07,10.0,South,4.6,-,N/A,,Scattered Clouds,170,2013-09-10 19:55:00
3:15 PM,93.4,57.2,30,30.07,10.0,SSE,9.2,-,N/A,,Mostly Cloudy,150,2013-09-10 20:15:00
3:35 PM,91.8,56.3,30,30.06,10.0,South,9.2,-,N/A,,Mostly Cloudy,170,2013-09-10 20:35:00
3:55 PM,92.7,54.0,27,30.05,10.0,SSE,10.4,-,N/A,,Scattered Clouds,160,2013-09-10 20:55:00
4:15 PM,92.3,54.1,27,30.05,10.0,SSE,6.9,-,N/A,,Clear,160,2013-09-10 21:15:00
4:35 PM,93.9,55.4,27,30.04,10.0,SSE,6.9,-,N/A,,Clear,150,2013-09-10 21:35:00
4:55 PM,92.7,55.0,28,30.04,10.0,South,10.4,-,N/A,,Clear,190,2013-09-10 21:55:00
5:15 PM,95.2,54.7,25,30.04,10.0,SE,9.2,-,N/A,,Clear,140,2013-09-10 22:15:00
5:35 PM,93.0,54.5,27,30.04,10.0,SSE,4.6,-,N/A,,Clear,150,2013-09-10 22:35:00
5:55 PM,92.1,55.2,29,30.04,10.0,SE,4.6,-,N/A,,Clear,140,2013-09-10 22:55:00
6:15 PM,90.7,56.3,31,30.04,10.0,South,3.5,-,N/A,,Clear,170,2013-09-10 23:15:00
6:35 PM,91.8,56.1,30,30.03,10.0,South,3.5,-,N/A,,Clear,170,2013-09-10 23:35:00
6:55 PM,90.1,55.4,31,30.04,10.0,South,3.5,-,N/A,,Clear,170,2013-09-10 23:55:00
7:15 PM,88.2,56.5,34,30.04,10.0,Calm,Calm,-,N/A,,Clear,0,2013-09-11 00:15:00
7:35 PM,84.2,58.3,41,30.04,10.0,Calm,Calm,-,N/A,,Clear,0,2013-09-11 00:35:00
7:55 PM,84.0,58.5,42,30.05,10.0,North,-9999.0,-,N/A,,Clear,0,2013-09-11 00:55:00
8:15 PM,81.5,59.4,47,30.05,10.0,Calm,Calm,-,N/A,,Clear,0,2013-09-11 01:15:00
8:35 PM,79.9,59.7,50,30.05,10.0,Calm,Calm,-,N/A,,Clear,0,2013-09-11 01:35:00
8:55 PM,79.0,60.4,53,30.06,10.0,Calm,Calm,-,N/A,,Clear,0,2013-09-11 01:55:00
9:15 PM,77.9,62.1,58,30.07,10.0,Calm,Calm,-,N/A,,Clear,0,2013-09-11 02:15:00
9:35 PM,77.4,61.0,57,30.07,10.0,Calm,Calm,-,N/A,,Clear,0,2013-09-11 02:35:00
9:55 PM,76.6,61.9,60,30.08,10.0,Calm,Calm,-,N/A,,Clear,0,2013-09-11 02:55:00
10:15 PM,75.7,61.2,60,30.08,10.0,Calm,Calm,-,N/A,,Clear,0,2013-09-11 03:15:00
10:35 PM,74.8,61.7,64,30.09,10.0,Calm,Calm,-,N/A,,Clear,0,2013-09-11 03:35:00
10:55 PM,74.3,61.5,64,30.09,10.0,Calm,Calm,-,N/A,,Clear,0,2013-09-11 03:55:00
11:15 PM,73.0,61.9,68,30.09,10.0,Calm,Calm,-,N/A,,Clear,0,2013-09-11 04:15:00
11:35 PM,73.4,62.1,68,30.09,10.0,Calm,Calm,-,N/A,,Clear,0,2013-09-11 04:35:00
11:55 PM,72.7,62.1,69,30.09,10.0,Calm,Calm,-,N/A,,Clear,0,2013-09-11 04:55:00